Starlink 6315

operational
NORAD ID: 57236 Int'l Des: 2023-094 Owner: SPXS Country: US Constellation: starlink
LEOCIRCULAR

关于 Starlink 6315

正在加载描述...

实时位置

正在加载3D地球...

即将过境

高度历史

Altitude vs Time

uPlot chart will show altitude changes over time

两行轨道根数

1 57236U 23094U 25351.32386442 .00000345 00000-0 40635-4 0 9993
2 57236 43.0035 105.4270 0001293 267.2527 92.8167 15.02536881134870
Epoch: Dec 17, 2025 • Age: 7 hours

当前状态

高度 563.1 km
速度 7.59 km/s
星下点 43.04°N, 115.85°W
发射日期 Jul 7, 2023
运行时间 2.4 years
类型 internet

技术详情

分类 Payload
质量 305.00 kg
干质量 290.00 kg
总质量 305.00 kg
长度 0.20 m
直径 2.80 m
跨度 9.00 m
形状 Box + pan
制造商 SPXS
平台类型 Starlink
阶段状态 In Orbit
所有者/国家 SPXS/US

大型星座

Loading constellations...